Portada
METAR-TAF:

METAR-TAF

Aeroports :

Newport, Vermont, Estats Units d'Amèrica

latitud: 44-53-20N, longitud: 072-13-45W, altitud: 283 m

Observació

L'informe es va fer fa 19 minuts, a les 13:57 UTC
Vent calma
Temperatura -12°C
Humitat 85%
Pressió 1017 hPa
Visibilitat: 16.1 km
Cel clar

METAR: KEFK 181357Z AUTO 00000KT 10SM CLR M12/M14 A3002 RMK AO2 T11251145

Hora: 09:16 (14:16 UTC)


TAF: manca

Observacions i pronòstics meteorològics de més de 4000 aeroports (METAR i TAF).

Les estacions disponibles són els punts grocs i vermells al mapa.

Posi el ratolí al punt desitjat per veure el nom de l'estació.

Feu clic per veure les observacions i els pronòstics meteorològics.

Per canviar el mapa: feu clic els botons verds amb una creu de color negre per apropar; al botó verd amb un guió per allunyar la imatge; o en les fletxes verdes per a mapes adjacents.


METAR-TAF: